{"data":{"norad_id":61897,"epoch":"2026-09-22T23:39:15.973920Z","epoch_age_seconds":87997,"freshness":"FRESH","line1":"1 61897U 24205D   26265.98560155  .00003908  00000+0  18979-3 0  9990","line2":"2 61897  97.4014 335.4644 0013189  79.1874 281.0844 15.18967210103129","mean_motion":15.1896721,"eccentricity":0.0013189,"inclination_deg":97.4014,"raan_deg":335.4644,"arg_perigee_deg":79.1874,"mean_anomaly_deg":281.0844,"bstar":0.00018979,"rev_number":10312,"period_min":94.801256440552,"perigee_km":499.87727823167,"apogee_km":518.04406446916,"semimajor_km":6887.0976713504,"source":"CELESTRAK","updated_at":"2026-09-23T09:00:21.097669Z"}}